Wind_Speed
3 3 3 3 4 4 5 6 6 6 6 6 6 6 7 7 7 7 7 7 7 7 9 9 10 11 11 12 12 13 14 15 16 17 17 18 19 20
4 4 4 4 4 5 5 6 6 6 6 7 7 7 7 8 7 7 8 8 8 9 10 11 11 12 12 13 14 14 15 16 17 17 18 19 20 21
4 5 5 6 5 6 6 7 7 7 8 8 8 7 8 8 9 9 9 10 10 11 12 12 12 13 13 14 14 15 16 17 18 18 19 20 21 22
5 5 6 6 6 6 6 7 8 8 8 9 8 8 8 9 10 10 11 11 12 12 13 13 13 14 14 15 16 17 17 18 19 20 21 22 23 24
6 6 7 7 7 7 7 7 8 9 9 9 10 9 9 10 11 12 12 13 13 13 14 14 15 15 16 17 18 19 19 20 21 21 22 23 24 25
7 7 7 7 8 8 8 8 9 9 10 10 10 10 10 11 12 12 12 13 13 14 15 15 16 17 18 19 20 21 21 22 22 23 24 25 26 27
8 8 9 9 10 10 10 10 10 11 11 11 11 12 12 13 13 14 13 14 15 16 16 18 18 19 19 21 21 22 23 23 24 25 26 27 28 29
10 11 11 11 11 11 12 12 12 12 13 13 13 13 14 14 15 15 15 16 17 18 19 20 20 21 22 23 23 24 25 26 26 27 28 28 29 30
13 13 13 13 13 13 13 13 13 14 14 14 15 15 16 16 16 16 17 18 18 19 19 21 22 23 23 24 25 26 27 28 28 29 30 30 31 32
14 14 14 14 15 15 15 15 15 16 15 15 16 16 17 17 17 18 18 19 20 21 22 23 24 25 25 26 27 28 29 29 30 30 31 32 33 34
15 15 15 15 16 16 16 16 17 16 16 16 16 17 18 18 19 20 21 21 22 22 23 24 25 26 27 29 29 30 31 31 32 33 34 35 36 37
15 16 16 16 17 17 17 17 17 17 17 18 19 19 20 20 21 22 22 23 24 24 25 26 28 29 29 30 31 32 33 33 34 35 37 38 38 38
16 17 17 17 18 18 18 18 19 19 19 20 20 21 22 23 23 24 24 25 26 27 28 29 30 31 32 32 33 33 34 36 37 38 39 40 40 40
18 18 18 19 19 20 20 20 21 21 22 22 23 23 24 24 25 26 26 27 28 30 31 32 33 33 34 35 35 36 37 38 39 40 41 41 42 42
19 20 20 20 20 21 22 22 23 24 24 25 25 26 26 27 28 28 29 31 32 33 33 34 35 36 37 38 38 39 40 41 41 42 43 44 44 44
20 21 21 22 22 22 23 24 25 25 26 27 27 27 28 28 29 30 32 33 34 35 36 37 37 38 39 40 40 41 42 43 43 44 45 45 46 46
21 22 22 23 24 24 25 25 26 26 27 28 28 28 29 31 32 33 34 35 36 36 37 37 39 39 40 41 41 42 42 43 44 45 45 46 46 47
23 23 24 24 25 26 26 26 27 28 28 29 30 31 32 33 34 35 35 36 36 37 38 38 39 40 41 41 43 43 44 45 46 46 47 48 48 48
25 25 25 25 26 26 27 27 28 29 30 31 32 33 34 35 35 36 36 36 37 38 38 39 40 41 42 42 43 44 45 46 47 47 48 48 48 49
26 27 27 27 27 27 27 28 30 31 31 32 33 34 35 35 35 36 36 37 38 38 39 40 41 42 43 44 44 45 46 47 48 48 48 48 48 49
27 28 28 28 28 29 29 30 31 31 32 33 33 34 35 35 36 36 37 38 39 39 40 41 42 43 44 45 45 46 47 48 49 49 49 48 48 48
26 26 27 27 28 29 29 30 31 32 33 33 33 34 35 35 36 37 38 39 40 40 41 42 44 44 45 46 47 47 47 48 48 49 50 50 50 49
25 26 27 28 28 29 30 31 32 33 33 33 34 34 35 36 37 38 39 40 41 43 44 45 45 46 47 47 48 48 48 48 48 49 49 50 50 50
Wind_Direction
320 313 310 301 304 311 317 325 330 331 328 322 323 326 327 322 314 310 310 306 308 315 314 310 307 307 308 310 309 310 311 310 310 308 308 307 307 307
315 316 311 303 302 307 312 322 325 328 327 325 320 318 316 316 318 316 316 316 315 315 315 313 312 311 312 312 311 311 311 311 311 310 309 307 305 305
313 319 313 308 304 306 309 315 321 323 323 321 318 315 311 311 312 312 313 314 312 312 312 314 314 313 313 312 311 311 310 309 309 308 308 308 308 306
301 306 309 311 311 310 306 310 313 317 318 318 318 315 312 309 309 308 308 309 308 308 309 310 311 311 310 311 311 312 312 311 309 307 307 307 307 307
293 297 298 304 307 307 308 311 312 314 313 314 315 314 311 308 307 305 305 306 306 307 308 308 308 309 309 310 311 311 310 309 307 306 306 306 306 306
289 293 296 298 301 305 308 310 312 312 311 312 312 313 312 310 309 306 306 307 306 308 308 307 307 308 309 309 309 309 308 307 306 307 307 307 307 307
290 294 296 296 298 301 301 303 304 304 306 307 309 311 313 312 311 311 310 310 309 308 308 310 307 308 308 309 306 308 309 309 309 308 307 306 307 307
288 291 294 295 296 295 296 296 298 300 301 302 304 307 310 312 311 311 312 312 312 311 311 311 310 310 310 308 308 309 309 309 308 307 307 307 307 307
282 286 289 291 292 292 294 295 296 298 298 301 301 303 305 307 309 309 311 312 311 311 310 309 309 309 308 308 307 307 307 307 306 306 306 308 307 307
281 285 286 289 289 290 292 293 294 296 298 300 300 301 303 305 306 307 308 309 310 310 310 310 311 311 311 309 308 307 307 306 306 306 307 306 305 305
283 286 287 289 290 291 292 292 293 294 296 298 298 299 300 301 302 303 304 305 306 307 308 308 309 309 309 308 308 307 306 306 305 305 305 304 304 304
282 285 287 288 289 292 292 292 292 294 295 297 299 300 301 301 301 302 303 304 305 305 306 307 307 307 307 306 306 306 305 305 305 304 305 304 304 304
282 284 286 288 290 292 291 291 292 293 293 294 296 299 300 301 302 302 302 302 303 304 305 305 305 305 306 306 306 305 305 304 304 303 304 303 303 303
281 282 285 287 289 289 289 290 290 291 292 293 295 297 297 298 300 301 300 300 301 303 303 303 304 304 305 306 305 305 304 304 303 303 303 303 303 302
282 283 285 286 287 288 288 289 289 289 290 292 294 295 296 298 299 299 300 300 301 302 302 303 303 304 305 305 305 304 304 304 303 303 303 302 302 301
287 287 286 286 286 288 288 288 289 290 291 293 293 294 295 297 299 300 300 301 302 302 302 303 304 305 306 307 306 305 305 304 304 304 303 303 302 301
286 287 288 287 287 289 290 290 290 291 292 293 295 295 296 297 298 299 300 300 302 302 302 303 304 305 306 307 306 306 305 305 305 305 304 304 303 302
284 286 287 287 288 288 289 290 291 291 292 293 294 294 296 297 298 299 300 302 302 303 303 304 304 305 306 306 307 306 305 306 305 305 306 305 305 304
283 284 285 285 287 287 287 289 291 292 293 293 293 294 296 297 298 300 301 302 303 304 304 305 305 306 306 306 307 307 307 307 307 307 307 307 306 305
284 285 286 287 288 289 290 291 292 293 293 294 294 295 296 297 299 301 302 303 304 304 305 305 306 306 306 307 308 308 308 308 308 308 308 308 307 307
286 286 286 288 288 289 291 293 294 295 295 296 296 296 297 298 299 300 302 303 303 304 304 305 306 306 307 308 309 309 309 309 309 309 309 309 309 308
286 287 288 289 290 290 292 293 295 296 296 297 297 297 298 299 300 301 302 303 304 304 304 305 306 307 308 308 309 310 310 310 309 309 309 309 309 309
289 290 291 292 294 294 294 295 295 296 296 296 297 298 299 300 300 301 301 302 303 304 304 305 306 306 307 308 309 310 310 310 309 309 308 309 309 309
Height
5865 5864 5864 5864 5864 5864 5863 5863 5863 5862 5862 5861 5860 5859 5859 5858 5857 5857 5857 5856 5856 5855 5855 5854 5853 5852 5851 5850 5849 5847 5846 5844 5843 5841 5840 5838 5837 5835
5864 5864 5864 5864 5864 5863 5863 5862 5862 5862 5861 5860 5859 5858 5857 5857 5856 5856 5855 5854 5854 5853 5852 5851 5850 5849 5848 5847 5846 5844 5843 5841 5839 5837 5836 5834 5832 5830
5864 5864 5863 5863 5863 5862 5862 5861 5861 5860 5859 5859 5858 5857 5856 5856 5855 5854 5853 5852 5851 5851 5850 5849 5848 5847 5845 5844 5843 5841 5839 5837 5835 5833 5832 5830 5828 5826
5863 5863 5863 5862 5862 5861 5861 5860 5859 5859 5858 5857 5856 5855 5854 5854 5853 5852 5851 5850 5849 5848 5847 5846 5845 5843 5842 5841 5839 5837 5835 5833 5831 5829 5827 5825 5823 5820
5862 5862 5862 5861 5861 5860 5859 5859 5858 5857 5856 5856 5854 5853 5852 5851 5850 5850 5848 5847 5846 5845 5844 5842 5841 5840 5838 5837 5835 5833 5831 5828 5826 5824 5822 5819 5817 5814
5861 5860 5860 5859 5859 5858 5857 5857 5856 5855 5854 5853 5852 5851 5850 5849 5848 5847 5845 5844 5843 5842 5840 5839 5837 5836 5834 5832 5830 5828 5826 5823 5821 5818 5816 5813 5810 5807
5859 5858 5858 5857 5857 5856 5855 5855 5854 5853 5852 5851 5850 5849 5848 5846 5845 5844 5842 5841 5839 5838 5837 5835 5833 5831 5829 5827 5825 5822 5820 5817 5815 5812 5809 5806 5803 5800
5857 5856 5856 5855 5854 5854 5853 5852 5851 5850 5849 5848 5847 5846 5845 5843 5842 5841 5839 5838 5836 5835 5833 5831 5829 5826 5824 5822 5819 5817 5814 5811 5808 5805 5802 5799 5796 5793
5854 5853 5853 5852 5851 5851 5850 5849 5848 5847 5846 5845 5844 5843 5841 5840 5838 5837 5835 5833 5832 5830 5828 5826 5824 5821 5819 5816 5813 5811 5808 5805 5801 5798 5795 5791 5788 5784
5850 5850 5849 5849 5848 5847 5846 5846 5845 5844 5842 5841 5840 5839 5837 5836 5834 5833 5831 5829 5827 5825 5823 5821 5818 5816 5813 5809 5807 5804 5800 5797 5793 5790 5787 5783 5779 5775
5846 5846 5846 5845 5844 5843 5843 5842 5841 5839 5838 5837 5836 5834 5833 5831 5829 5828 5826 5824 5822 5820 5817 5815 5813 5810 5806 5803 5799 5796 5792 5789 5785 5781 5778 5774 5770 5765
5842 5842 5841 5841 5840 5839 5838 5837 5836 5835 5834 5833 5831 5829 5828 5826 5824 5822 5820 5818 5816 5814 5811 5809 5806 5803 5800 5796 5792 5788 5784 5780 5776 5772 5768 5763 5759 5754
5838 5838 5837 5836 5836 5835 5834 5833 5831 5830 5829 5828 5826 5825 5823 5821 5819 5816 5814 5812 5809 5807 5804 5801 5798 5794 5791 5788 5784 5779 5775 5771 5767 5762 5757 5752 5748 5743
5834 5833 5832 5832 5831 5830 5829 5827 5826 5825 5824 5822 5821 5819 5817 5815 5812 5810 5807 5805 5802 5799 5796 5792 5789 5785 5782 5778 5774 5770 5765 5760 5756 5751 5746 5741 5736 5731
5828 5828 5827 5826 5825 5824 5823 5822 5820 5819 5817 5816 5814 5812 5810 5808 5805 5803 5800 5797 5794 5790 5787 5783 5780 5776 5771 5767 5763 5759 5754 5749 5744 5739 5734 5729 5724 5719
5823 5822 5822 5821 5820 5819 5817 5816 5814 5812 5811 5809 5807 5805 5803 5800 5798 5795 5792 5788 5785 5781 5777 5773 5769 5765 5761 5756 5751 5746 5742 5737 5732 5726 5721 5716 5710 5705
5818 5817 5816 5815 5814 5812 5811 5809 5807 5805 5803 5801 5799 5797 5795 5792 5789 5786 5783 5779 5775 5771 5767 5763 5758 5754 5749 5745 5739 5734 5729 5724 5718 5713 5708 5702 5697 5691
5812 5810 5809 5808 5807 5805 5803 5802 5800 5798 5796 5794 5791 5789 5786 5783 5780 5776 5773 5769 5765 5761 5757 5752 5748 5743 5739 5733 5728 5722 5717 5712 5706 5700 5694 5688 5683 5677
5805 5804 5802 5801 5800 5798 5796 5794 5792 5790 5787 5785 5782 5779 5777 5773 5770 5766 5763 5759 5755 5751 5746 5741 5737 5732 5727 5723 5717 5710 5704 5699 5693 5687 5680 5674 5668 5663
5798 5796 5795 5793 5792 5790 5788 5786 5783 5781 5778 5776 5773 5770 5767 5763 5760 5756 5752 5748 5744 5740 5735 5730 5725 5720 5715 5710 5705 5699 5692 5685 5679 5673 5667 5661 5654 5648
5790 5788 5787 5785 5783 5782 5779 5777 5775 5772 5769 5766 5763 5760 5757 5753 5750 5746 5742 5738 5734 5729 5725 5720 5714 5709 5703 5698 5692 5686 5679 5672 5665 5659 5653 5647 5642 5636
5782 5780 5779 5777 5775 5773 5771 5768 5766 5763 5760 5757 5753 5750 5747 5743 5740 5736 5731 5727 5723 5718 5713 5708 5703 5697 5692 5686 5680 5673 5667 5660 5652 5645 5639 5633 5627 5622
5775 5773 5771 5769 5767 5765 5762 5760 5757 5754 5750 5747 5744 5740 5737 5733 5729 5725 5721 5716 5712 5707 5702 5697 5691 5685 5679 5673 5667 5660 5654 5647 5640 5634 5627 5620 5614 5608